| time (UTC) | temp F | wind direction | speed MPH | gust MPH | rain 1hr in | rain 24hr in | rain mn in | humidity % | barometer mb |
| 20260505004615 | 82 | 245 | 9.0 | 18.0 | 0.00 | 0.00 | 0.00 | 14 | 1004.2 |
| 20260505004112 | 82 | 246 | 11.0 | 23.0 | 0.00 | 0.00 | 0.00 | 14 | 1004.2 |
| 20260505003609 | 82 | 227 | 17.0 | 23.0 | 0.00 | 0.00 | 0.00 | 14 | 1004.3 |
| 20260505003107 | 82 | 221 | 17.0 | 18.0 | 0.00 | 0.00 | 0.00 | 14 | 1004.3 |
| 20260505002602 | 82 | 228 | 17.0 | 19.0 | 0.00 | 0.00 | 0.00 | 14 | 1004.3 |
| 20260505002101 | 82 | 227 | 19.0 | 19.0 | 0.00 | 0.00 | 0.00 | 14 | 1004.3 |
| 20260505001558 | 83 | 229 | 17.0 | 20.0 | 0.00 | 0.00 | 0.00 | 14 | 1004.4 |
| 20260505001055 | 83 | 230 | 15.0 | 23.0 | 0.00 | 0.00 | 0.00 | 13 | 1004.3 |
| 20260505000552 | 83 | 236 | 13.0 | 23.0 | 0.00 | 0.00 | 0.00 | 13 | 1004.3 |
| 20260505000050 | 83 | 227 | 16.0 | 24.0 | 0.00 | 0.00 | 0.00 | 13 | 1004.2 |
| 20260504235546 | 83 | 234 | 7.0 | 22.0 | 0.00 | 0.00 | 0.00 | 13 | 1004.3 |
| 20260504235043 | 84 | 229 | 16.0 | 28.0 | 0.00 | 0.00 | 0.00 | 13 | 1004.3 |
| 20260504234540 | 84 | 234 | 15.0 | 21.0 | 0.00 | 0.00 | 0.00 | 13 | 1004.4 |
| 20260504234037 | 84 | 223 | 13.0 | 27.0 | 0.00 | 0.00 | 0.00 | 14 | 1004.3 |
| 20260504233532 | 84 | 214 | 15.0 | 22.0 | 0.00 | 0.00 | 0.00 | 16 | 1004.1 |
| 20260504233029 | 84 | 233 | 12.0 | 20.0 | 0.00 | 0.00 | 0.00 | 17 | 1004.2 |
| 20260504232526 | 84 | 235 | 10.0 | 18.0 | 0.00 | 0.00 | 0.00 | 17 | 1004.3 |
| 20260504232024 | 84 | 224 | 9.0 | 14.0 | 0.00 | 0.00 | 0.00 | 20 | 1004.1 |
| 20260504231521 | 84 | 226 | 6.0 | 13.0 | 0.00 | 0.00 | 0.00 | 21 | 1004.2 |
| 20260504231017 | 85 | 228 | 10.0 | 14.0 | 0.00 | 0.00 | 0.00 | 20 | 1004.1 |
| 20260504230513 | 84 | 246 | 5.0 | 18.0 | 0.00 | 0.00 | 0.00 | 20 | 1004.3 |
| 20260504230013 | 84 | 246 | 12.0 | 15.0 | 0.00 | 0.00 | 0.00 | 21 | 1004.2 |
| 20260504225509 | 84 | 241 | 10.0 | 17.0 | 0.00 | 0.00 | 0.00 | 22 | 1004.5 |
| 20260504225006 | 85 | 229 | 11.0 | 15.0 | 0.00 | 0.00 | 0.00 | 21 | 1004.4 |
| 20260504224502 | 85 | 253 | 9.0 | 24.0 | 0.00 | 0.00 | 0.00 | 22 | 1004.5 |
| 20260504223959 | 85 | 228 | 13.0 | 22.0 | 0.00 | 0.00 | 0.00 | 22 | 1004.7 |
| 20260504223456 | 86 | 238 | 9.0 | 19.0 | 0.00 | 0.00 | 0.00 | 21 | 1004.7 |
| 20260504222951 | 85 | 226 | 5.0 | 12.0 | 0.00 | 0.00 | 0.00 | 21 | 1004.7 |
| 20260504222449 | 85 | 243 | 9.0 | 18.0 | 0.00 | 0.00 | 0.00 | 20 | 1005.0 |
| 20260504221947 | 86 | 259 | 4.0 | 12.0 | 0.00 | 0.00 | 0.00 | 19 | 1004.8 |
| 20260504221444 | 85 | 299 | 4.0 | 13.0 | 0.00 | 0.00 | 0.00 | 20 | 1004.9 |
| 20260504220941 | 86 | 247 | 12.0 | 15.0 | 0.00 | 0.00 | 0.00 | 20 | 1004.9 |
| 20260504220437 | 86 | 230 | 9.0 | 18.0 | 0.00 | 0.00 | 0.00 | 20 | 1004.9 |
| 20260504215934 | 86 | 213 | 11.0 | 16.0 | 0.00 | 0.00 | 0.00 | 19 | 1004.9 |
| 20260504215431 | 86 | 238 | 9.0 | 13.0 | 0.00 | 0.00 | 0.00 | 19 | 1004.9 |
| 20260504214927 | 85 | 246 | 4.0 | 15.0 | 0.00 | 0.00 | 0.00 | 20 | 1005.0 |
| 20260504214424 | 86 | 250 | 6.0 | 19.0 | 0.00 | 0.00 | 0.00 | 20 | 1005.1 |
| 20260504213920 | 85 | 287 | 6.0 | 14.0 | 0.00 | 0.00 | 0.00 | 20 | 1005.2 |
| 20260504213416 | 85 | 286 | 12.0 | 17.0 | 0.00 | 0.00 | 0.00 | 20 | 1005.2 |
| 20260504212914 | 85 | 234 | 13.0 | 22.0 | 0.00 | 0.00 | 0.00 | 20 | 1005.2 |
| 20260504212409 | 85 | 206 | 16.0 | 23.0 | 0.00 | 0.00 | 0.00 | 20 | 1005.2 |
| 20260504211908 | 85 | 241 | 8.0 | 19.0 | 0.00 | 0.00 | 0.00 | 21 | 1005.3 |
| 20260504211404 | 85 | 226 | 9.0 | 17.0 | 0.00 | 0.00 | 0.00 | 21 | 1005.8 |
| 20260504210901 | 85 | 233 | 12.0 | 19.0 | 0.00 | 0.00 | 0.00 | 21 | 1005.7 |
| 20260504210358 | 85 | 232 | 10.0 | 20.0 | 0.00 | 0.00 | 0.00 | 21 | 1005.8 |
| 20260504205855 | 85 | 235 | 11.0 | 23.0 | 0.00 | 0.00 | 0.00 | 20 | 1005.9 |
| 20260504205353 | 85 | 230 | 13.0 | 19.0 | 0.00 | 0.00 | 0.00 | 20 | 1006.0 |
| 20260504204851 | 85 | 234 | 6.0 | 12.0 | 0.00 | 0.00 | 0.00 | 23 | 1005.9 |
| 20260504204349 | 84 | 239 | 8.0 | 14.0 | 0.00 | 0.00 | 0.00 | 22 | 1006.0 |
| 20260504203848 | 84 | 227 | 13.0 | 21.0 | 0.00 | 0.00 | 0.00 | 22 | 1006.1 |
| 20260504203344 | 85 | 225 | 12.0 | 19.0 | 0.00 | 0.00 | 0.00 | 22 | 1006.0 |
| 20260504202840 | 85 | 322 | 3.0 | 9.0 | 0.00 | 0.00 | 0.00 | 23 | 1006.2 |
| 20260504202338 | 86 | 224 | 7.0 | 15.0 | 0.00 | 0.00 | 0.00 | 23 | 1006.1 |
| 20260504201834 | 85 | 230 | 8.0 | 15.0 | 0.00 | 0.00 | 0.00 | 23 | 1006.4 |
| 20260504201332 | 85 | 225 | 14.0 | 22.0 | 0.00 | 0.00 | 0.00 | 22 | 1006.4 |
| 20260504200829 | 84 | 236 | 11.0 | 17.0 | 0.00 | 0.00 | 0.00 | 22 | 1006.6 |
| 20260504200325 | 84 | 247 | 6.0 | 21.0 | 0.00 | 0.00 | 0.00 | 23 | 1006.6 |
| 20260504195822 | 84 | 231 | 10.0 | 13.0 | 0.00 | 0.00 | 0.00 | 23 | 1006.7 |
| 20260504195317 | 84 | 229 | 10.0 | 15.0 | 0.00 | 0.00 | 0.00 | 23 | 1006.7 |
| 20260504194814 | 84 | 234 | 10.0 | 18.0 | 0.00 | 0.00 | 0.00 | 23 | 1006.6 |
| 20260504194310 | 83 | 247 | 8.0 | 15.0 | 0.00 | 0.00 | 0.00 | 23 | 1006.9 |
| 20260504193807 | 83 | 227 | 13.0 | 14.0 | 0.00 | 0.00 | 0.00 | 24 | 1007.0 |
| 20260504193304 | 83 | 227 | 8.0 | 16.0 | 0.00 | 0.00 | 0.00 | 25 | 1007.1 |
| 20260504192803 | 84 | 308 | 4.0 | 12.0 | 0.00 | 0.00 | 0.00 | 26 | 1007.1 |
| 20260504192300 | 83 | 274 | 6.0 | 11.0 | 0.00 | 0.00 | 0.00 | 25 | 1007.1 |
| 20260504191759 | 82 | 238 | 7.0 | 14.0 | 0.00 | 0.00 | 0.00 | 26 | 1007.0 |
| 20260504191256 | 83 | 232 | 8.0 | 10.0 | 0.00 | 0.00 | 0.00 | 25 | 1007.1 |
| 20260504190751 | 83 | 303 | 10.0 | 18.0 | 0.00 | 0.00 | 0.00 | 25 | 1007.2 |
| 20260504190248 | 83 | 271 | 2.0 | 7.0 | 0.00 | 0.00 | 0.00 | 26 | 1007.4 |
| 20260504185744 | 82 | 226 | 6.0 | 15.0 | 0.00 | 0.00 | 0.00 | 26 | 1007.3 |
| 20260504185241 | 83 | 232 | 8.0 | 13.0 | 0.00 | 0.00 | 0.00 | 26 | 1007.4 |
| 20260504184737 | 83 | 295 | 8.0 | 18.0 | 0.00 | 0.00 | 0.00 | 25 | 1007.7 |
| 20260504184233 | 83 | 295 | 6.0 | 14.0 | 0.00 | 0.00 | 0.00 | 26 | 1007.6 |
| 20260504183729 | 82 | 286 | 4.0 | 13.0 | 0.00 | 0.00 | 0.00 | 26 | 1007.8 |
| 20260504183226 | 83 | 239 | 8.0 | 19.0 | 0.00 | 0.00 | 0.00 | 25 | 1008.0 |
| 20260504182724 | 83 | 206 | 4.0 | 17.0 | 0.00 | 0.00 | 0.00 | 25 | 1007.8 |
| 20260504182221 | 82 | 267 | 6.0 | 14.0 | 0.00 | 0.00 | 0.00 | 25 | 1008.1 |
| 20260504181719 | 82 | 248 | 4.0 | 16.0 | 0.00 | 0.00 | 0.00 | 26 | 1008.2 |
| 20260504181216 | 82 | 237 | 6.0 | 15.0 | 0.00 | 0.00 | 0.00 | 25 | 1008.3 |
| 20260504180715 | 82 | 278 | 12.0 | 14.0 | 0.00 | 0.00 | 0.00 | 24 | 1008.4 |
| 20260504180213 | 82 | 313 | 3.0 | 12.0 | 0.00 | 0.00 | 0.00 | 25 | 1008.6 |
| 20260504175710 | 82 | 289 | 12.0 | 17.0 | 0.00 | 0.00 | 0.00 | 24 | 1008.6 |
| 20260504175207 | 82 | 294 | 12.0 | 19.0 | 0.00 | 0.00 | 0.00 | 26 | 1008.9 |
| 20260504174705 | 82 | 231 | 17.0 | 18.0 | 0.00 | 0.00 | 0.00 | 27 | 1008.7 |
| 20260504174203 | 81 | 235 | 13.0 | 17.0 | 0.00 | 0.00 | 0.00 | 27 | 1008.9 |
| 20260504173659 | 81 | 233 | 6.0 | 17.0 | 0.00 | 0.00 | 0.00 | 28 | 1008.9 |
| 20260504173156 | 81 | 323 | 15.0 | 21.0 | 0.00 | 0.00 | 0.00 | 26 | 1008.9 |
| 20260504172652 | 81 | 292 | 5.0 | 15.0 | 0.00 | 0.00 | 0.00 | 28 | 1009.2 |
| 20260504172149 | 81 | 230 | 14.0 | 16.0 | 0.00 | 0.00 | 0.00 | 27 | 1009.1 |
| 20260504171645 | 80 | 220 | 13.0 | 16.0 | 0.00 | 0.00 | 0.00 | 27 | 1009.0 |
| 20260504171143 | 81 | 240 | 7.0 | 16.0 | 0.00 | 0.00 | 0.00 | 28 | 1009.0 |
| 20260504170639 | 81 | 227 | 14.0 | 15.0 | 0.00 | 0.00 | 0.00 | 27 | 1009.2 |
| 20260504170137 | 81 | 286 | 8.0 | 15.0 | 0.00 | 0.00 | 0.00 | 26 | 1009.2 |
| 20260504151022 | 72 | 243 | 3.0 | 14.0 | 0.00 | 0.00 | 0.00 | 44 | 1009.7 |
| 20260504150520 | 71 | 243 | 5.0 | 11.0 | 0.00 | 0.00 | 0.00 | 45 | 1009.9 |
| 20260504140940 | 64 | 240 | 8.0 | 13.0 | 0.00 | 0.00 | 0.00 | 54 | 1010.1 |
| 20260504140436 | 64 | 252 | 11.0 | 14.0 | 0.00 | 0.00 | 0.00 | 55 | 1009.9 |
| 20260504130401 | 59 | 221 | 9.0 | 11.0 | 0.00 | 0.00 | 0.00 | 62 | 1009.1 |
| 20260504110248 | 59 | 238 | 10.0 | 16.0 | 0.00 | 0.00 | 0.00 | 61 | 1009.0 |
| 20260504100206 | 59 | 230 | 7.0 | 15.0 | 0.00 | 0.00 | 0.00 | 60 | 1009.3 |
| 20260504090128 | 59 | 209 | 13.0 | 17.0 | 0.00 | 0.00 | 0.00 | 59 | 1009.9 |
| 20260504081558 | 60 | 212 | 19.0 | 25.0 | 0.00 | 0.00 | 0.00 | 56 | 1010.2 |
| 20260504081054 | 60 | 212 | 19.0 | 23.0 | 0.00 | 0.00 | 0.00 | 55 | 1010.2 |
| 20260504080551 | 60 | 211 | 15.0 | 18.0 | 0.00 | 0.00 | 0.00 | 55 | 1010.2 |
| 20260504050404 | 56 | 177 | 4.0 | 6.0 | 0.00 | 0.00 | 0.00 | 48 | 1012.1 |
| 20260504045901 | 57 | 187 | 4.0 | 7.0 | 0.00 | 0.00 | 0.00 | 48 | 1012.2 |
| 20260504045356 | 57 | 196 | 5.0 | 9.0 | 0.00 | 0.00 | 0.00 | 47 | 1012.2 |
| 20260504044853 | 58 | 175 | 5.0 | 9.0 | 0.00 | 0.00 | 0.00 | 46 | 1012.0 |
| 20260504044350 | 59 | 189 | 8.0 | 10.0 | 0.00 | 0.00 | 0.00 | 45 | 1012.1 |
| 20260504043848 | 59 | 169 | 8.0 | 11.0 | 0.00 | 0.00 | 0.00 | 45 | 1012.2 |
| 20260504043344 | 59 | 184 | 9.0 | 11.0 | 0.00 | 0.00 | 0.00 | 45 | 1012.2 |
| 20260504042842 | 59 | 193 | 6.0 | 10.0 | 0.00 | 0.00 | 0.00 | 44 | 1012.3 |
| 20260504042338 | 59 | 195 | 6.0 | 11.0 | 0.00 | 0.00 | 0.00 | 45 | 1012.5 |
| 20260504041835 | 58 | 193 | 4.0 | 7.0 | 0.00 | 0.00 | 0.00 | 45 | 1012.5 |
| 20260504041331 | 58 | 188 | 6.0 | 9.0 | 0.00 | 0.00 | 0.00 | 46 | 1012.3 |
| 20260504040827 | 58 | 169 | 6.0 | 9.0 | 0.00 | 0.00 | 0.00 | 45 | 1012.2 |
| 20260504040325 | 57 | 154 | 6.0 | 7.0 | 0.00 | 0.00 | 0.00 | 46 | 1012.3 |
| 20260504035820 | 58 | 159 | 4.0 | 7.0 | 0.00 | 0.00 | 0.00 | 46 | 1012.5 |
| 20260504035318 | 58 | 163 | 8.0 | 9.0 | 0.00 | 0.00 | 0.00 | 46 | 1012.6 |
| 20260504034815 | 57 | 165 | 6.0 | 9.0 | 0.00 | 0.00 | 0.00 | 47 | 1012.5 |
| 20260504034313 | 57 | 159 | 5.0 | 6.0 | 0.00 | 0.00 | 0.00 | 47 | 1012.3 |
| 20260504033810 | 57 | 153 | 5.0 | 6.0 | 0.00 | 0.00 | 0.00 | 46 | 1012.5 |
| 20260504033308 | 60 | 157 | 6.0 | 10.0 | 0.00 | 0.00 | 0.00 | 43 | 1012.6 |
| 20260504032804 | 61 | 153 | 9.0 | 11.0 | 0.00 | 0.00 | 0.00 | 42 | 1012.6 |
| 20260504032301 | 58 | 140 | 4.0 | 7.0 | 0.00 | 0.00 | 0.00 | 44 | 1012.3 |
| 20260504031757 | 57 | 151 | 4.0 | 5.0 | 0.00 | 0.00 | 0.00 | 44 | 1012.5 |
| 20260504031255 | 57 | 153 | 3.0 | 3.0 | 0.00 | 0.00 | 0.00 | 44 | 1012.3 |
| 20260504030751 | 58 | 151 | 4.0 | 5.0 | 0.00 | 0.00 | 0.00 | 43 | 1012.2 |
| 20260504030248 | 58 | 146 | 4.0 | 5.0 | 0.00 | 0.00 | 0.00 | 44 | 1012.3 |
| 20260504025745 | 58 | 154 | 3.0 | 4.0 | 0.00 | 0.00 | 0.00 | 44 | 1012.3 |
| 20260504025242 | 58 | 155 | 3.0 | 4.0 | 0.00 | 0.00 | 0.00 | 44 | 1012.2 |
| 20260504024739 | 59 | 156 | 4.0 | 4.0 | 0.00 | 0.00 | 0.00 | 43 | 1012.3 |
| 20260504024235 | 61 | 154 | 5.0 | 6.0 | 0.00 | 0.00 | 0.00 | 40 | 1012.5 |
| 20260504023732 | 62 | 149 | 4.0 | 6.0 | 0.00 | 0.00 | 0.00 | 40 | 1012.5 |
| 20260504023228 | 62 | 164 | 3.0 | 4.0 | 0.00 | 0.00 | 0.00 | 40 | 1012.3 |
| 20260504022724 | 63 | 171 | 3.0 | 4.0 | 0.00 | 0.00 | 0.00 | 39 | 1012.1 |
| 20260504022220 | 64 | 186 | 3.0 | 5.0 | 0.00 | 0.00 | 0.00 | 38 | 1012.3 |
| 20260504021718 | 65 | 188 | 5.0 | 5.0 | 0.00 | 0.00 | 0.00 | 38 | 1012.2 |
| 20260504021215 | 66 | 197 | 5.0 | 7.0 | 0.00 | 0.00 | 0.00 | 37 | 1012.2 |
| 20260504020712 | 67 | 207 | 6.0 | 7.0 | 0.00 | 0.00 | 0.00 | 37 | 1012.2 |
| 20260504020208 | 68 | 196 | 4.0 | 8.0 | 0.00 | 0.00 | 0.00 | 36 | 1012.0 |
| 20260504015705 | 69 | 205 | 7.0 | 10.0 | 0.00 | 0.00 | 0.00 | 35 | 1012.1 |
| 20260504015201 | 70 | 200 | 9.0 | 14.0 | 0.00 | 0.00 | 0.00 | 34 | 1012.2 |
| 20260504014656 | 71 | 206 | 11.0 | 15.0 | 0.00 | 0.00 | 0.00 | 33 | 1012.1 |
| 20260504014154 | 72 | 209 | 12.0 | 19.0 | 0.00 | 0.00 | 0.00 | 32 | 1012.0 |
| 20260504013652 | 71 | 208 | 9.0 | 13.0 | 0.00 | 0.00 | 0.00 | 33 | 1012.0 |
| 20260504013148 | 71 | 198 | 9.0 | 16.0 | 0.00 | 0.00 | 0.00 | 33 | 1011.9 |
| 20260504012645 | 72 | 209 | 13.0 | 18.0 | 0.00 | 0.00 | 0.00 | 32 | 1011.8 |
| 20260504012143 | 73 | 210 | 12.0 | 18.0 | 0.00 | 0.00 | 0.00 | 32 | 1012.0 |
| 20260504011640 | 73 | 206 | 16.0 | 20.0 | 0.00 | 0.00 | 0.00 | 31 | 1012.1 |
| 20260504011136 | 73 | 209 | 10.0 | 18.0 | 0.00 | 0.00 | 0.00 | 31 | 1011.8 |
| 20260504010632 | 74 | 218 | 8.0 | 20.0 | 0.00 | 0.00 | 0.00 | 31 | 1012.0 |
| 20260504010128 | 74 | 206 | 13.0 | 18.0 | 0.00 | 0.00 | 0.00 | 30 | 1012.0 |
| 20260504005625 | 74 | 210 | 7.0 | 17.0 | 0.00 | 0.00 | 0.00 | 31 | 1012.1 |
| 20260504005122 | 74 | 215 | 17.0 | 18.0 | 0.00 | 0.00 | 0.00 | 30 | 1012.1 |